Location: Oshawa
(43.9000°N, 78.8670°W)
Time: 01:28:48
(UTC-04:00)

Thor Agena Rocket - Visible Passes

Search period start: 19 August 2017 00:00
Search period end: 29 August 2017 00:00
Orbit: 760 x 808 km, 99.1° (Epoch: 18 August)

Date Brightness Start Highest point End Pass type
(mag) Time Alt. Az. Time Alt. Az. Time Alt. Az.
19 Aug 6.7 05:24:28 10° ESE 05:27:55 19° ENE 05:31:24 10° NNE visible
19 Aug 5.9 20:51:35 10° N 20:56:07 30° WNW 21:00:39 10° SW visible
20 Aug 7.4 04:56:28 10° ENE 04:57:07 10° NE 04:57:48 10° NE visible
21 Aug 6.9 21:29:26 10° NNW 21:32:31 16° WNW 21:35:36 10° W visible
22 Aug 6.5 05:29:43 10° ESE 05:33:23 21° ENE 05:37:06 10° NNE visible
22 Aug 6.0 20:57:13 10° N 21:01:38 28° WNW 21:06:03 10° WSW visible
23 Aug 7.1 05:01:01 10° ENE 05:02:35 11° NE 05:04:10 10° NE visible
24 Aug 6.9 21:35:12 10° NNW 21:37:59 15° WNW 21:40:47 10° W visible
25 Aug 6.4 05:34:59 10° ESE 05:38:52 22° ENE 05:42:48 10° NNE visible
25 Aug 6.1 21:02:53 10° N 21:07:08 26° WNW 21:11:25 10° WSW visible
26 Aug 7.0 05:05:55 10° E 05:08:03 13° NE 05:10:11 10° NNE visible
26 Aug 5.0 20:31:06 10° N 20:36:09 46° WNW 20:41:09 10° SW visible
27 Aug 7.0 21:41:01 10° NNW 21:43:28 13° NW 21:45:56 10° W visible
28 Aug 6.2 05:40:18 10° ESE 05:44:21 25° ENE 05:48:29 10° N visible
28 Aug 6.2 21:08:31 10° N 21:12:39 24° WNW 21:16:45 10° WSW visible
